Time,TemperatureF,DewpointF,PressureIn,WindDirection,WindDirectionDegrees,WindSpeedMPH,WindSpeedGustMPH,Humidity,HourlyPrecipIn,Conditions,Clouds,dailyrainin,SoftwareType,DateUTC
2013-03-13 00:00:00,46.2,39.7,30.16,NW,320,0.0,0.0,78,0.00,,CLR,0.00,VWS V13.01,2013-03-13 05:00:00,
2013-03-13 00:02:00,46.3,39.8,30.16,NW,321,0.0,0.0,78,0.00,,CLR,0.00,VWS V13.01,2013-03-13 05:02:00,
2013-03-13 00:08:00,46.2,40.1,30.17,NW,319,0.0,0.0,79,0.00,,CLR,0.00,VWS V13.01,2013-03-13 05:08:00,
2013-03-13 00:13:00,46.1,40.0,30.17,NW,320,0.0,0.0,79,0.00,,CLR,0.00,VWS V13.01,2013-03-13 05:13:00,
2013-03-13 00:15:00,46.0,39.9,30.17,NW,320,0.0,0.0,79,0.00,,CLR,0.00,VWS V13.01,2013-03-13 05:15:00,
2013-03-13 00:18:00,46.0,39.9,30.17,NW,321,0.0,0.0,79,0.00,,CLR,0.00,VWS V13.01,2013-03-13 05:18:00,
2013-03-13 00:23:00,45.8,40.0,30.17,NW,320,0.0,0.0,80,0.00,,CLR,0.00,VWS V13.01,2013-03-13 05:23:00,
2013-03-13 00:28:00,45.6,39.8,30.17,NW,319,0.0,0.0,80,0.00,,CLR,0.00,VWS V13.01,2013-03-13 05:28:00,
2013-03-13 00:30:00,45.5,39.7,30.17,NW,320,0.0,0.0,80,0.00,,CLR,0.00,VWS V13.01,2013-03-13 05:30:00,
2013-03-13 00:33:00,45.5,39.7,30.17,NW,319,0.0,0.0,80,0.00,,CLR,0.00,VWS V13.01,2013-03-13 05:33:00,
2013-03-13 00:38:00,45.4,39.9,30.17,NW,320,0.0,0.0,81,0.00,,CLR,0.00,VWS V13.01,2013-03-13 05:38:00,
2013-03-13 00:43:00,45.3,39.8,30.18,NW,319,0.0,0.0,81,0.00,,CLR,0.00,VWS V13.01,2013-03-13 05:43:00,
2013-03-13 00:45:00,45.2,39.7,30.17,NW,320,0.0,0.0,81,0.00,,CLR,0.00,VWS V13.01,2013-03-13 05:45:00,
2013-03-13 00:48:00,45.1,39.6,30.17,NW,319,0.0,0.0,81,0.00,,CLR,0.00,VWS V13.01,2013-03-13 05:48:00,
2013-03-13 00:53:00,45.0,39.5,30.18,NW,320,0.0,0.0,81,0.00,,CLR,0.00,VWS V13.01,2013-03-13 05:53:00,
2013-03-13 00:58:00,45.0,39.8,30.18,NW,320,0.0,0.0,82,0.00,,CLR,0.00,VWS V13.01,2013-03-13 05:58:00,
2013-03-13 01:00:00,44.8,39.7,30.18,NW,320,0.0,0.0,82,0.00,,CLR,0.00,VWS V13.01,2013-03-13 06:00:00,
2013-03-13 01:03:00,44.7,39.5,30.18,NW,320,0.0,0.0,82,0.00,,CLR,0.00,VWS V13.01,2013-03-13 06:03:00,
2013-03-13 01:08:00,44.6,39.8,30.18,NW,320,0.0,0.0,83,0.00,,CLR,0.00,VWS V13.01,2013-03-13 06:08:00,
2013-03-13 01:13:00,44.5,39.4,30.18,NW,320,0.0,0.0,82,0.00,,CLR,0.00,VWS V13.01,2013-03-13 06:13:00,
2013-03-13 01:15:00,44.4,39.6,30.18,NW,319,0.0,0.0,83,0.00,,CLR,0.00,VWS V13.01,2013-03-13 06:15:00,
2013-03-13 01:18:00,44.3,39.5,30.18,NW,320,0.0,0.0,83,0.00,,CLR,0.00,VWS V13.01,2013-03-13 06:18:00,
2013-03-13 01:24:00,44.2,39.4,30.18,NW,319,0.0,0.0,83,0.00,,CLR,0.00,VWS V13.01,2013-03-13 06:24:00,
2013-03-13 01:29:00,44.1,39.6,30.18,NW,320,0.0,0.0,84,0.00,,CLR,0.00,VWS V13.01,2013-03-13 06:29:00,
2013-03-13 01:30:00,44.1,39.6,30.18,NW,320,0.0,0.0,84,0.00,,CLR,0.00,VWS V13.01,2013-03-13 06:30:00,
2013-03-13 01:34:00,44.0,39.5,30.18,NW,320,0.0,0.0,84,0.00,,CLR,0.00,VWS V13.01,2013-03-13 06:34:00,
2013-03-13 01:39:00,43.8,39.3,30.18,NW,320,0.0,0.0,84,0.00,,CLR,0.00,VWS V13.01,2013-03-13 06:39:00,
2013-03-13 01:44:00,43.7,39.2,30.18,NW,319,0.0,0.0,84,0.00,,CLR,0.00,VWS V13.01,2013-03-13 06:44:00,
2013-03-13 01:45:00,43.6,39.1,30.18,NW,320,0.0,0.0,84,0.00,,CLR,0.00,VWS V13.01,2013-03-13 06:45:00,
2013-03-13 01:49:00,43.6,39.1,30.18,NW,320,0.0,0.0,84,0.00,,CLR,0.00,VWS V13.01,2013-03-13 06:49:00,
2013-03-13 01:54:00,43.6,39.1,30.18,NW,319,0.0,0.0,84,0.00,,CLR,0.00,VWS V13.01,2013-03-13 06:54:00,
2013-03-13 01:59:00,43.4,38.9,30.18,NW,320,0.0,0.0,84,0.00,,CLR,0.00,VWS V13.01,2013-03-13 06:59:00,
2013-03-13 02:00:00,43.5,39.0,30.18,NW,320,0.0,0.0,84,0.00,,CLR,0.00,VWS V13.01,2013-03-13 07:00:00,
2013-03-13 02:04:00,43.5,38.7,30.18,NW,320,0.0,0.0,83,0.00,,CLR,0.00,VWS V13.01,2013-03-13 07:04:00,
2013-03-13 02:09:00,43.6,38.8,30.18,NW,320,0.0,0.0,83,0.00,,CLR,0.00,VWS V13.01,2013-03-13 07:09:00,
2013-03-13 02:14:00,43.8,38.7,30.18,NW,319,0.0,0.0,82,0.00,,CLR,0.00,VWS V13.01,2013-03-13 07:14:00,
2013-03-13 02:15:00,43.9,38.8,30.18,NW,320,0.0,0.0,82,0.00,,CLR,0.00,VWS V13.01,2013-03-13 07:15:00,
2013-03-13 02:19:00,44.1,39.0,30.18,NW,320,0.0,0.0,82,0.00,,CLR,0.00,VWS V13.01,2013-03-13 07:19:00,
2013-03-13 02:25:00,44.1,39.0,30.18,NW,320,0.0,0.0,82,0.00,,CLR,0.00,VWS V13.01,2013-03-13 07:25:00,
2013-03-13 02:30:00,44.0,38.9,30.18,NW,320,0.0,0.0,82,0.00,,CLR,0.00,VWS V13.01,2013-03-13 07:30:00,
2013-03-13 02:35:00,43.8,38.7,30.18,NW,320,0.0,0.0,82,0.00,,CLR,0.00,VWS V13.01,2013-03-13 07:35:00,
2013-03-13 02:40:00,43.7,38.6,30.18,NW,320,0.0,0.0,82,0.00,,CLR,0.00,VWS V13.01,2013-03-13 07:40:00,
2013-03-13 02:45:00,43.4,38.3,30.18,NW,319,0.0,0.0,82,0.00,,CLR,0.00,VWS V13.01,2013-03-13 07:45:00,
2013-03-13 02:50:00,43.2,38.1,30.18,NW,320,0.0,0.0,82,0.00,,CLR,0.00,VWS V13.01,2013-03-13 07:50:00,
2013-03-13 02:55:00,42.9,38.1,30.18,NW,320,0.0,0.0,83,0.00,,CLR,0.00,VWS V13.01,2013-03-13 07:55:00,
2013-03-13 03:00:00,42.9,38.1,30.18,NW,319,0.0,0.0,83,0.00,,CLR,0.00,VWS V13.01,2013-03-13 08:00:00,
2013-03-13 03:06:00,43.0,38.2,30.18,NW,320,0.0,0.0,83,0.00,,CLR,0.00,VWS V13.01,2013-03-13 08:06:00,
2013-03-13 03:11:00,43.1,38.0,30.18,NW,320,0.0,0.0,82,0.00,,CLR,0.00,VWS V13.01,2013-03-13 08:11:00,
2013-03-13 03:15:00,43.2,38.1,30.18,NW,320,0.0,0.0,82,0.00,,CLR,0.00,VWS V13.01,2013-03-13 08:15:00,
2013-03-13 03:16:00,43.2,38.1,30.18,NW,320,0.0,0.0,82,0.00,,CLR,0.00,VWS V13.01,2013-03-13 08:16:00,
2013-03-13 03:22:00,43.3,37.9,30.19,NW,320,0.0,0.0,81,0.00,,CLR,0.00,VWS V13.01,2013-03-13 08:22:00,
2013-03-13 03:27:00,43.2,38.1,30.19,NW,320,0.0,0.0,82,0.00,,CLR,0.00,VWS V13.01,2013-03-13 08:27:00,
2013-03-13 03:30:00,43.1,38.0,30.19,NW,320,0.0,0.0,82,0.00,,CLR,0.00,VWS V13.01,2013-03-13 08:30:00,
2013-03-13 03:32:00,43.1,38.0,30.19,NW,320,0.0,0.0,82,0.00,,CLR,0.00,VWS V13.01,2013-03-13 08:32:00,
2013-03-13 03:37:00,42.8,37.7,30.19,NW,320,0.0,0.0,82,0.00,,CLR,0.00,VWS V13.01,2013-03-13 08:37:00,
2013-03-13 03:42:00,42.6,37.8,30.19,NW,320,0.0,0.0,83,0.00,,CLR,0.00,VWS V13.01,2013-03-13 08:42:00,
2013-03-13 03:45:00,42.7,37.9,30.19,North,0,0.0,0.0,83,0.00,,CLR,0.00,VWS V13.01,2013-03-13 08:45:00,
2013-03-13 03:59:00,41.9,37.4,30.19,NW,320,0.0,0.0,84,0.00,,CLR,0.00,VWS V13.01,2013-03-13 08:59:00,
2013-03-13 04:04:00,41.7,37.2,30.19,NW,320,0.0,0.0,84,0.00,,CLR,0.00,VWS V13.01,2013-03-13 09:04:00,
2013-03-13 04:09:00,41.5,37.3,30.19,NW,320,0.0,0.0,85,0.00,,CLR,0.00,VWS V13.01,2013-03-13 09:09:00,
2013-03-13 04:14:00,41.4,37.2,30.20,NW,320,0.0,0.0,85,0.00,,CLR,0.00,VWS V13.01,2013-03-13 09:14:00,
2013-03-13 04:19:00,41.3,37.4,30.20,NW,320,0.0,0.0,86,0.00,,CLR,0.00,VWS V13.01,2013-03-13 09:19:00,
2013-03-13 04:24:00,41.3,37.4,30.20,NW,319,0.0,0.0,86,0.00,,CLR,0.00,VWS V13.01,2013-03-13 09:24:00,
2013-03-13 04:29:00,41.2,37.3,30.20,NW,320,0.0,0.0,86,0.00,,CLR,0.00,VWS V13.01,2013-03-13 09:29:00,
2013-03-13 04:35:00,41.2,37.3,30.20,NW,319,0.0,0.0,86,0.00,,CLR,0.00,VWS V13.01,2013-03-13 09:35:00,
2013-03-13 04:40:00,41.2,37.3,30.20,NW,319,0.0,0.0,86,0.00,,CLR,0.00,VWS V13.01,2013-03-13 09:40:00,
2013-03-13 04:45:00,41.2,37.6,30.20,NW,319,0.0,0.0,87,0.00,,CLR,0.00,VWS V13.01,2013-03-13 09:45:00,
2013-03-13 04:50:00,41.1,37.2,30.20,NW,320,0.0,0.0,86,0.00,,CLR,0.00,VWS V13.01,2013-03-13 09:50:00,
2013-03-13 04:55:00,41.1,37.5,30.21,NW,320,0.0,0.0,87,0.00,,CLR,0.00,VWS V13.01,2013-03-13 09:55:00,
2013-03-13 05:00:00,41.0,37.4,30.21,NW,320,0.0,0.0,87,0.00,,CLR,0.00,VWS V13.01,2013-03-13 10:00:00,
2013-03-13 05:05:00,40.8,37.2,30.21,NW,320,0.0,0.0,87,0.00,,CLR,0.00,VWS V13.01,2013-03-13 10:05:00,
2013-03-13 05:10:00,40.7,37.1,30.21,NW,320,0.0,0.0,87,0.00,,CLR,0.00,VWS V13.01,2013-03-13 10:10:00,
2013-03-13 05:15:00,40.6,37.3,30.22,NW,320,0.0,0.0,88,0.00,,CLR,0.00,VWS V13.01,2013-03-13 10:15:00,
2013-03-13 05:20:00,40.6,37.3,30.22,NW,320,0.0,0.0,88,0.00,,CLR,0.00,VWS V13.01,2013-03-13 10:20:00,
2013-03-13 05:25:00,40.4,37.1,30.22,NW,320,0.0,0.0,88,0.00,,CLR,0.00,VWS V13.01,2013-03-13 10:25:00,
2013-03-13 05:30:00,40.3,37.0,30.22,NW,320,0.0,0.0,88,0.00,,CLR,0.00,VWS V13.01,2013-03-13 10:30:00,
2013-03-13 06:01:00,39.8,36.8,30.23,NW,320,0.0,0.0,89,0.00,,CLR,0.00,VWS V13.01,2013-03-13 11:01:00,
2013-03-13 06:06:00,39.8,36.8,30.24,NW,320,0.0,0.0,89,0.00,,FEW200,0.00,VWS V13.01,2013-03-13 11:06:00,
2013-03-13 06:11:00,39.7,36.7,30.24,NW,320,0.0,0.0,89,0.00,,FEW200,0.00,VWS V13.01,2013-03-13 11:11:00,
2013-03-13 06:16:00,39.6,36.6,30.24,NW,319,0.0,0.0,89,0.00,,FEW200,0.00,VWS V13.01,2013-03-13 11:16:00,
2013-03-13 06:21:00,39.5,36.8,30.24,NW,320,0.0,0.0,90,0.00,,FEW200,0.00,VWS V13.01,2013-03-13 11:21:00,
2013-03-13 06:26:00,39.5,36.8,30.24,NW,320,0.0,0.0,90,0.00,,FEW200,0.00,VWS V13.01,2013-03-13 11:26:00,
2013-03-13 06:32:00,39.6,36.6,30.24,NW,319,0.0,0.0,89,0.00,,FEW200,0.00,VWS V13.01,2013-03-13 11:32:00,
2013-03-13 06:37:00,39.7,36.7,30.25,NW,320,0.0,0.0,89,0.00,,FEW200,0.00,VWS V13.01,2013-03-13 11:37:00,
2013-03-13 06:42:00,39.7,36.7,30.25,NW,320,0.0,0.0,89,0.00,,FEW200,0.00,VWS V13.01,2013-03-13 11:42:00,
2013-03-13 06:47:00,39.8,36.5,30.25,NW,319,0.0,0.0,88,0.00,,FEW200,0.00,VWS V13.01,2013-03-13 11:47:00,
2013-03-13 06:52:00,40.0,36.7,30.25,NW,320,0.0,0.0,88,0.00,,FEW200,0.00,VWS V13.01,2013-03-13 11:52:00,
2013-03-13 06:57:00,40.1,36.5,30.25,NW,319,0.0,0.0,87,0.00,,FEW200,0.00,VWS V13.01,2013-03-13 11:57:00,
2013-03-13 07:02:00,40.3,36.8,30.25,NW,319,0.0,0.0,87,0.00,,FEW200,0.00,VWS V13.01,2013-03-13 12:02:00,
2013-03-13 07:07:00,40.4,36.8,30.26,NW,319,0.0,0.0,87,0.00,,FEW200,0.00,VWS V13.01,2013-03-13 12:07:00,
2013-03-13 07:12:00,40.4,36.8,30.26,NW,320,0.0,0.0,87,0.00,,FEW200,0.00,VWS V13.01,2013-03-13 12:12:00,
2013-03-13 07:17:00,40.5,36.9,30.26,NW,319,0.0,0.0,87,0.00,,FEW200,0.00,VWS V13.01,2013-03-13 12:17:00,
2013-03-13 07:22:00,40.5,36.9,30.26,NW,320,0.0,0.0,87,0.00,,FEW200,0.00,VWS V13.01,2013-03-13 12:22:00,
2013-03-13 07:27:00,40.5,36.9,30.26,NW,320,0.0,0.0,87,0.00,,FEW200,0.00,VWS V13.01,2013-03-13 12:27:00,
2013-03-13 07:32:00,40.5,36.9,30.27,NW,320,0.0,0.0,87,0.00,,FEW200,0.00,VWS V13.01,2013-03-13 12:32:00,
2013-03-13 07:37:00,40.6,37.0,30.27,NW,320,0.0,0.0,87,0.00,,FEW200,0.00,VWS V13.01,2013-03-13 12:37:00,
2013-03-13 07:43:00,40.7,37.1,30.27,NW,320,0.0,0.0,87,0.00,,FEW200,0.00,VWS V13.01,2013-03-13 12:43:00,
2013-03-13 07:48:00,41.1,39.0,30.27,NW,320,0.0,0.0,92,0.00,,FEW200,0.00,VWS V13.01,2013-03-13 12:48:00,
2013-03-13 07:53:00,41.5,37.9,30.27,NW,319,0.0,0.0,87,0.00,,FEW200,0.00,VWS V13.01,2013-03-13 12:53:00,
2013-03-13 07:58:00,42.1,38.2,30.28,NW,320,0.0,0.0,86,0.00,,FEW200,0.00,VWS V13.01,2013-03-13 12:58:00,
2013-03-13 08:03:00,42.7,38.8,30.28,NW,320,0.0,0.0,86,0.00,,FEW200,0.00,VWS V13.01,2013-03-13 13:03:00,
2013-03-13 08:08:00,43.3,39.1,30.28,NW,320,0.0,0.0,85,0.00,,FEW200,0.00,VWS V13.01,2013-03-13 13:08:00,
2013-03-13 08:13:00,44.0,38.9,30.28,NW,320,0.0,0.0,82,0.00,,FEW200,0.00,VWS V13.01,2013-03-13 13:13:00,
2013-03-13 08:18:00,44.8,39.0,30.28,NW,320,0.0,1.0,80,0.00,,FEW200,0.00,VWS V13.01,2013-03-13 13:18:00,
2013-03-13 08:23:00,45.5,39.0,30.29,NW,320,0.0,1.0,78,0.00,,FEW200,0.00,VWS V13.01,2013-03-13 13:23:00,
2013-03-13 08:28:00,46.2,39.4,30.29,NW,319,0.0,1.0,77,0.00,,FEW200,0.00,VWS V13.01,2013-03-13 13:28:00,
2013-03-13 08:33:00,46.9,39.7,30.29,NW,320,0.0,0.0,76,0.00,,FEW200,0.00,VWS V13.01,2013-03-13 13:33:00,
2013-03-13 08:38:00,47.7,39.8,30.29,NW,319,0.0,1.0,74,0.00,,FEW200,0.00,VWS V13.01,2013-03-13 13:38:00,
2013-03-13 08:44:00,48.4,40.2,30.29,NW,320,0.0,1.0,73,0.00,,FEW200,0.00,VWS V13.01,2013-03-13 13:44:00,
2013-03-13 08:49:00,49.2,40.2,30.29,NW,319,0.0,0.0,71,0.00,,FEW200,0.00,VWS V13.01,2013-03-13 13:49:00,
2013-03-13 08:54:00,50.0,40.6,30.29,NW,320,0.0,0.0,70,0.00,,FEW200,0.00,VWS V13.01,2013-03-13 13:54:00,
2013-03-13 09:00:00,50.9,40.3,30.29,NW,320,0.0,1.0,67,0.00,,FEW200,0.00,VWS V13.01,2013-03-13 14:00:00,
2013-03-13 09:10:00,52.4,40.2,30.30,NW,319,0.0,1.0,63,0.00,,FEW200,0.00,VWS V13.01,2013-03-13 14:10:00,
2013-03-13 09:15:00,53.2,39.7,30.29,NNW,331,0.0,6.0,60,0.00,,FEW200,0.00,VWS V13.01,2013-03-13 14:15:00,
2013-03-13 09:20:00,53.9,39.9,30.30,NNW,332,0.0,1.0,59,0.00,,FEW200,0.00,VWS V13.01,2013-03-13 14:20:00,
2013-03-13 09:25:00,54.5,40.5,30.30,NNW,334,0.0,4.0,59,0.00,,FEW200,0.00,VWS V13.01,2013-03-13 14:25:00,
2013-03-13 09:30:00,55.1,39.2,30.30,NNW,337,2.0,6.0,55,0.00,,FEW200,0.00,VWS V13.01,2013-03-13 14:30:00,
2013-03-13 09:45:00,57.1,40.6,30.30,NNW,333,0.0,6.0,54,0.00,,FEW200,0.00,VWS V13.01,2013-03-13 14:45:00,
2013-03-13 09:50:00,57.5,39.5,30.30,North,349,4.0,12.0,51,0.00,,FEW200,0.00,VWS V13.01,2013-03-13 14:50:00,
2013-03-13 09:55:00,57.4,39.4,30.31,NNW,344,1.0,12.0,51,0.00,,FEW200,0.00,VWS V13.01,2013-03-13 14:55:00,
2013-03-13 10:00:00,57.3,39.8,30.31,NW,313,1.0,12.0,52,0.00,,FEW200,0.00,VWS V13.01,2013-03-13 15:00:00,
2013-03-13 10:05:00,57.5,40.0,30.31,WNW,297,3.0,11.0,52,0.00,,FEW200,0.00,VWS V13.01,2013-03-13 15:05:00,
2013-03-13 10:10:00,57.8,40.3,30.32,NW,312,3.0,11.0,52,0.00,,FEW200,0.00,VWS V13.01,2013-03-13 15:10:00,
2013-03-13 10:15:00,57.8,39.3,30.32,North,355,6.0,11.0,50,0.00,,FEW200,0.00,VWS V13.01,2013-03-13 15:15:00,
2013-03-13 10:20:00,58.0,40.0,30.32,NNW,334,3.0,9.0,51,0.00,,FEW200,0.00,VWS V13.01,2013-03-13 15:20:00,
2013-03-13 10:25:00,58.2,40.2,30.32,WNW,293,4.0,9.0,51,0.00,,FEW200,0.00,VWS V13.01,2013-03-13 15:25:00,
2013-03-13 10:30:00,58.4,40.4,30.32,WNW,288,6.0,10.0,51,0.00,,FEW200,0.00,VWS V13.01,2013-03-13 15:30:00,
2013-03-13 10:35:00,58.6,40.0,30.32,NNW,332,4.0,10.0,50,0.00,,FEW200,0.00,VWS V13.01,2013-03-13 15:35:00,
2013-03-13 10:40:00,59.0,40.9,30.32,NNE,24,0.0,10.0,51,0.00,,FEW200,0.00,VWS V13.01,2013-03-13 15:40:00,
2013-03-13 10:45:00,59.6,41.0,30.32,North,10,4.0,11.0,50,0.00,,FEW200,0.00,VWS V13.01,2013-03-13 15:45:00,
2013-03-13 14:23:00,63.8,28.3,30.25,NW,308,6.0,11.0,26,0.00,,FEW200,0.00,VWS V13.01,2013-03-13 19:23:00,
2013-03-13 14:29:00,63.9,26.4,30.25,NW,316,0.0,16.0,24,0.00,,FEW200,0.00,VWS V13.01,2013-03-13 19:29:00,
2013-03-13 14:35:00,64.0,26.5,30.24,West,274,0.0,10.0,24,0.00,,FEW200,0.00,VWS V13.01,2013-03-13 19:35:00,
2013-03-13 14:40:00,64.0,27.5,30.24,WNW,288,5.0,10.0,25,0.00,,FEW200,0.00,VWS V13.01,2013-03-13 19:40:00,
2013-03-13 14:47:00,64.5,26.9,30.24,WNW,302,0.0,9.0,24,0.00,,FEW200,0.00,VWS V13.01,2013-03-13 19:47:00,
2013-03-13 14:52:00,64.7,29.0,30.24,NW,319,3.0,9.0,26,0.00,,FEW200,0.00,VWS V13.01,2013-03-13 19:52:00,
2013-03-13 14:57:00,65.0,27.4,30.24,NNW,340,7.0,14.0,24,0.00,,FEW200,0.00,VWS V13.01,2013-03-13 19:57:00,
2013-03-13 15:02:00,64.9,27.3,30.23,WNW,296,0.0,7.0,24,0.00,,CLR,0.00,VWS V13.01,2013-03-13 20:02:00,
2013-03-13 15:07:00,64.6,26.0,30.23,NW,323,5.0,12.0,23,0.00,,CLR,0.00,VWS V13.01,2013-03-13 20:07:00,
2013-03-13 15:13:00,64.8,27.2,30.23,WNW,299,3.0,12.0,24,0.00,,CLR,0.00,VWS V13.01,2013-03-13 20:13:00,
2013-03-13 15:18:00,65.0,27.4,30.23,North,349,0.0,10.0,24,0.00,,CLR,0.00,VWS V13.01,2013-03-13 20:18:00,
2013-03-13 15:23:00,65.1,27.4,30.23,NW,315,3.0,10.0,24,0.00,,CLR,0.00,VWS V13.01,2013-03-13 20:23:00,
2013-03-13 15:29:00,65.4,27.7,30.23,NW,307,3.0,10.0,24,0.00,,CLR,0.00,VWS V13.01,2013-03-13 20:29:00,
2013-03-13 15:34:00,65.5,26.8,30.23,NW,323,0.0,6.0,23,0.00,,CLR,0.00,VWS V13.01,2013-03-13 20:34:00,
2013-03-13 15:39:00,65.3,26.6,30.23,NNE,26,3.0,11.0,23,0.00,,CLR,0.00,VWS V13.01,2013-03-13 20:39:00,
2013-03-13 15:44:00,65.3,27.6,30.23,WNW,300,2.0,11.0,24,0.00,,CLR,0.00,VWS V13.01,2013-03-13 20:44:00,
2013-03-13 15:49:00,65.3,28.6,30.23,NW,320,3.0,7.0,25,0.00,,CLR,0.00,VWS V13.01,2013-03-13 20:49:00,
2013-03-13 15:54:00,65.4,27.7,30.23,NNW,340,6.0,12.0,24,0.00,,CLR,0.00,VWS V13.01,2013-03-13 20:54:00,
2013-03-13 15:59:00,65.3,27.6,30.23,NNW,345,6.0,13.0,24,0.00,,CLR,0.00,VWS V13.01,2013-03-13 20:59:00,
2013-03-13 16:04:00,65.4,26.7,30.23,NNW,327,1.0,9.0,23,0.00,,CLR,0.00,VWS V13.01,2013-03-13 21:04:00,
2013-03-13 16:09:00,65.6,27.9,30.23,NW,323,1.0,9.0,24,0.00,,CLR,0.00,VWS V13.01,2013-03-13 21:09:00,
2013-03-13 16:14:00,65.8,27.0,30.23,NNW,332,12.0,16.0,23,0.00,,CLR,0.00,VWS V13.01,2013-03-13 21:14:00,
2013-03-13 16:19:00,65.6,26.8,30.23,NW,325,0.0,9.0,23,0.00,,CLR,0.00,VWS V13.01,2013-03-13 21:19:00,
2013-03-13 16:24:00,65.5,26.8,30.23,North,360,4.0,9.0,23,0.00,,CLR,0.00,VWS V13.01,2013-03-13 21:24:00,
2013-03-13 16:30:00,65.3,26.6,30.23,NW,325,0.0,11.0,23,0.00,,CLR,0.00,VWS V13.01,2013-03-13 21:30:00,
2013-03-13 16:35:00,65.1,26.4,30.22,NW,314,4.0,8.0,23,0.00,,CLR,0.00,VWS V13.01,2013-03-13 21:35:00,
2013-03-13 16:40:00,65.0,27.4,30.23,NW,312,1.0,10.0,24,0.00,,CLR,0.00,VWS V13.01,2013-03-13 21:40:00,
2013-03-13 16:45:00,64.8,27.2,30.23,NNW,327,4.0,11.0,24,0.00,,CLR,0.00,VWS V13.01,2013-03-13 21:45:00,
2013-03-13 16:50:00,64.6,27.0,30.23,NW,325,0.0,7.0,24,0.00,,CLR,0.00,VWS V13.01,2013-03-13 21:50:00,
2013-03-13 16:55:00,64.5,26.9,30.23,NW,319,7.0,11.0,24,0.00,,CLR,0.00,VWS V13.01,2013-03-13 21:55:00,
2013-03-13 17:00:00,64.3,26.8,30.23,WNW,285,6.0,11.0,24,0.00,,CLR,0.00,VWS V13.01,2013-03-13 22:00:00,
2013-03-13 17:05:00,64.2,27.7,30.23,NNW,345,4.0,11.0,25,0.00,,FEW250,0.00,VWS V13.01,2013-03-13 22:05:00,
2013-03-13 17:10:00,64.2,26.7,30.23,NW,319,1.0,11.0,24,0.00,,FEW250,0.00,VWS V13.01,2013-03-13 22:10:00,
2013-03-13 17:15:00,64.1,26.6,30.23,NW,321,2.0,12.0,24,0.00,,FEW250,0.00,VWS V13.01,2013-03-13 22:15:00,
2013-03-13 17:20:00,64.0,27.5,30.23,NW,323,1.0,13.0,25,0.00,,FEW250,0.00,VWS V13.01,2013-03-13 22:20:00,
2013-03-13 17:25:00,63.8,27.3,30.23,WNW,302,0.0,13.0,25,0.00,,FEW250,0.00,VWS V13.01,2013-03-13 22:25:00,
2013-03-13 17:30:00,63.7,27.2,30.23,WNW,297,0.0,13.0,25,0.00,,FEW250,0.00,VWS V13.01,2013-03-13 22:30:00,
2013-03-13 17:35:00,63.7,28.2,30.23,WNW,300,0.0,4.0,26,0.00,,FEW250,0.00,VWS V13.01,2013-03-13 22:35:00,
2013-03-13 17:40:00,63.5,26.1,30.23,NW,315,5.0,10.0,24,0.00,,FEW250,0.00,VWS V13.01,2013-03-13 22:40:00,
2013-03-13 17:45:00,63.3,26.9,30.23,NNW,346,5.0,11.0,25,0.00,,FEW250,0.00,VWS V13.01,2013-03-13 22:45:00,
2013-03-13 17:50:00,63.1,26.7,30.23,NNW,346,5.0,10.0,25,0.00,,FEW250,0.00,VWS V13.01,2013-03-13 22:50:00,
2013-03-13 17:55:00,62.9,26.6,30.23,NNW,336,0.0,12.0,25,0.00,,FEW250,0.00,VWS V13.01,2013-03-13 22:55:00,
2013-03-13 18:00:00,62.6,26.3,30.24,WNW,297,5.0,12.0,25,0.00,,FEW250,0.00,VWS V13.01,2013-03-13 23:00:00,
2013-03-13 18:05:00,62.4,27.1,30.24,NW,324,0.0,10.0,26,0.00,,FEW250,0.00,VWS V13.01,2013-03-13 23:05:00,
2013-03-13 18:10:00,62.2,26.9,30.24,NNW,329,2.0,10.0,26,0.00,,FEW250,0.00,VWS V13.01,2013-03-13 23:10:00,
2013-03-13 18:15:00,62.1,26.8,30.24,NNW,344,0.0,12.0,26,0.00,,FEW250,0.00,VWS V13.01,2013-03-13 23:15:00,
2013-03-13 18:21:00,61.9,27.6,30.24,NNW,342,1.0,7.0,27,0.00,,FEW250,0.00,VWS V13.01,2013-03-13 23:21:00,
2013-03-13 18:26:00,61.6,26.4,30.24,NNW,346,0.0,7.0,26,0.00,,FEW250,0.00,VWS V13.01,2013-03-13 23:26:00,
2013-03-13 18:31:00,61.3,27.1,30.24,NNW,330,2.0,7.0,27,0.00,,FEW250,0.00,VWS V13.01,2013-03-13 23:31:00,
2013-03-13 18:36:00,61.0,27.7,30.24,NNW,333,1.0,7.0,28,0.00,,FEW250,0.00,VWS V13.01,2013-03-13 23:36:00,
2013-03-13 18:57:00,59.8,27.5,30.26,NNW,333,0.0,4.0,29,0.00,,FEW250,0.00,VWS V13.01,2013-03-13 23:57:00,
2013-03-13 19:19:00,58.0,27.6,30.26,NNW,333,0.0,0.0,31,0.00,,FEW250,0.00,VWS V13.01,2013-03-14 00:19:00,
2013-03-13 19:24:00,57.6,28.0,30.26,NNW,333,0.0,0.0,32,0.00,,FEW250,0.00,VWS V13.01,2013-03-14 00:24:00,
2013-03-13 19:29:00,57.3,28.5,30.26,NNW,333,0.0,0.0,33,0.00,,FEW250,0.00,VWS V13.01,2013-03-14 00:29:00,
2013-03-13 19:34:00,56.9,28.8,30.26,NNW,333,0.0,0.0,34,0.00,,FEW200,0.00,VWS V13.01,2013-03-14 00:34:00,
2013-03-13 19:50:00,55.6,28.4,30.27,NNW,333,0.0,0.0,35,0.00,,FEW200,0.00,VWS V13.01,2013-03-14 00:50:00,
2013-03-13 20:00:00,55.4,28.9,30.27,North,0,0.0,0.0,36,0.00,,FEW200,0.00,VWS V13.01,2013-03-14 01:00:00,
2013-03-13 20:10:00,55.4,28.9,30.27,North,0,0.0,0.0,36,0.00,,FEW200,0.00,VWS V13.01,2013-03-14 01:10:00,
2013-03-13 20:15:00,54.2,28.5,30.26,NNW,333,0.0,0.0,37,0.00,,FEW200,0.00,VWS V13.01,2013-03-14 01:15:00,
2013-03-13 20:20:00,54.0,29.0,30.26,NNW,333,0.0,0.0,38,0.00,,FEW200,0.00,VWS V13.01,2013-03-14 01:20:00,
2013-03-13 20:25:00,53.7,28.7,30.27,NNW,333,0.0,1.0,38,0.00,,FEW200,0.00,VWS V13.01,2013-03-14 01:25:00,
2013-03-13 20:30:00,53.6,28.6,30.27,NNW,333,0.0,1.0,38,0.00,,FEW200,0.00,VWS V13.01,2013-03-14 01:30:00,
2013-03-13 20:35:00,53.4,28.5,30.27,NNW,333,0.0,1.0,38,0.00,,FEW200,0.00,VWS V13.01,2013-03-14 01:35:00,
2013-03-13 20:40:00,53.3,28.4,30.27,NNW,333,0.0,1.0,38,0.00,,FEW200,0.00,VWS V13.01,2013-03-14 01:40:00,
2013-03-13 20:45:00,53.2,28.3,30.27,NNW,333,0.0,1.0,38,0.00,,FEW200,0.00,VWS V13.01,2013-03-14 01:45:00,
2013-03-13 20:50:00,53.0,28.1,30.27,NNW,333,0.0,0.0,38,0.00,,FEW200,0.00,VWS V13.01,2013-03-14 01:50:00,
2013-03-13 20:55:00,52.9,28.0,30.27,NNW,333,0.0,0.0,38,0.00,,FEW200,0.00,VWS V13.01,2013-03-14 01:55:00,
2013-03-13 21:01:00,52.8,27.9,30.28,NNW,333,0.0,1.0,38,0.00,,FEW200,0.00,VWS V13.01,2013-03-14 02:01:00,
2013-03-13 21:06:00,52.6,27.7,30.28,NNW,333,0.0,3.0,38,0.00,,CLR,0.00,VWS V13.01,2013-03-14 02:06:00,
2013-03-13 21:11:00,52.4,27.6,30.28,NNW,333,0.0,4.0,38,0.00,,CLR,0.00,VWS V13.01,2013-03-14 02:11:00,
2013-03-13 21:16:00,52.3,28.1,30.29,NNW,333,0.0,4.0,39,0.00,,CLR,0.00,VWS V13.01,2013-03-14 02:16:00,
2013-03-13 21:21:00,52.2,27.4,30.29,NNW,333,0.0,0.0,38,0.00,,CLR,0.00,VWS V13.01,2013-03-14 02:21:00,
2013-03-13 21:26:00,52.0,27.8,30.29,NNW,333,0.0,0.0,39,0.00,,CLR,0.00,VWS V13.01,2013-03-14 02:26:00,
2013-03-13 21:55:00,50.7,27.9,30.31,NNW,333,0.0,0.0,41,0.00,,CLR,0.00,VWS V13.01,2013-03-14 02:55:00,
2013-03-13 22:03:00,50.2,27.4,30.31,NNW,333,0.0,0.0,41,0.00,,CLR,0.00,VWS V13.01,2013-03-14 03:03:00,
2013-03-13 22:08:00,50.1,27.9,30.31,NNW,333,0.0,0.0,42,0.00,,CLR,0.00,VWS V13.01,2013-03-14 03:08:00,
2013-03-13 22:13:00,49.9,28.9,30.31,NNW,333,0.0,0.0,44,0.00,,CLR,0.00,VWS V13.01,2013-03-14 03:13:00,
2013-03-13 22:35:00,48.1,28.8,30.32,NNW,333,0.0,0.0,47,0.00,,CLR,0.00,VWS V13.01,2013-03-14 03:35:00,
2013-03-13 23:36:00,45.8,29.7,30.34,NNW,333,0.0,0.0,53,0.00,,CLR,0.00,VWS V13.01,2013-03-14 04:36:00,
2013-03-13 23:37:00,45.9,29.8,30.34,NNW,333,0.0,0.0,53,0.00,,CLR,0.00,VWS V13.01,2013-03-14 04:37:00,
2013-03-13 23:38:00,45.8,29.7,30.34,NNW,333,0.0,0.0,53,0.00,,CLR,0.00,VWS V13.01,2013-03-14 04:38:00,
2013-03-13 23:43:00,45.8,29.7,30.34,NNW,333,0.0,0.0,53,0.00,,CLR,0.00,VWS V13.01,2013-03-14 04:43:00,
2013-03-13 23:48:00,45.7,29.6,30.34,NNW,333,0.0,0.0,53,0.00,,CLR,0.00,VWS V13.01,2013-03-14 04:48:00,
2013-03-13 23:53:00,45.7,29.6,30.34,NNW,333,0.0,1.0,53,0.00,,CLR,0.00,VWS V13.01,2013-03-14 04:53:00,
2013-03-13 23:58:00,45.8,29.7,30.34,NNW,333,0.0,1.0,53,0.00,,CLR,0.00,VWS V13.01,2013-03-14 04:58:00,